DW9354 Weather Reports


time (UTC)temp
C
wind
direction
speed
KPH
gust
KPH
rain 1hr
cm
rain 24hr
cm
rain mn
cm
humidity
%
barometer
mb
20260507140158 13 149 0.0 4.8 0.03 0.28 0.10 90 1012.6
20260507134655 13 164 0.0 1.6 0.00 0.36 0.08 90 1012.3
20260507133152 13 99 0.0 3.2 0.00 0.36 0.08 90 1012.2
20260507130143 13 357 0.0 4.8 0.00 0.36 0.08 89 1012.0
20260507124639 13 141 0.0 6.4 0.00 0.41 0.08 90 1011.9
20260507123137 13 182 0.0 1.6 0.00 0.41 0.08 90 1012.0
20260507121631 12 113 0.0 3.2 0.00 0.41 0.08 90 1012.0
20260507120127 12 93 0.0 4.8 0.00 0.41 0.08 92 1011.7
20260507114624 12 151 0.0 3.2 0.00 0.41 0.08 92 1011.8
20260507113119 12 296 0.0 3.2 0.00 0.41 0.08 92 1011.5
20260507111614 12 49 0.0 0.0 0.00 0.41 0.08 93 1011.3
20260507104607 12 87 0.0 1.6 0.00 0.41 0.08 93 1011.2
20260507103102 12 87 0.0 1.6 0.00 0.41 0.08 92 1011.1
20260507101601 12 73 0.0 0.0 0.00 0.41 0.08 92 1011.0
20260507100056 12 73 0.0 0.0 0.00 0.41 0.08 92 1010.7
20260507094602 13 73 0.0 3.2 0.00 0.41 0.08 92 1011.1
20260507093052 13 73 0.0 3.2 0.03 0.41 0.08 92 1011.2
20260507091552 13 194 0.0 0.0 0.03 0.41 0.08 92 1010.8
20260507090041 13 194 0.0 3.2 0.03 0.41 0.08 92 1011.0
20260507083036 13 132 0.0 1.6 0.00 0.38 0.05 91 1010.5
20260507081524 13 66 0.0 3.2 0.00 0.38 0.05 90 1010.6
20260507080022 13 223 0.0 9.7 0.00 0.38 0.05 90 1010.6
20260507074527 14 9 0.0 6.4 0.00 0.38 0.05 91 1010.2
20260507073012 15 97 0.0 14.5 0.03 0.38 0.05 92 1009.9
20260507071508 15 44 1.6 9.7 0.03 0.38 0.05 92 1009.7
20260507070010 16 122 0.0 11.3 0.05 0.38 0.05 92 1010.0